Weather in Pokrovskoye

Russia / Ulyanovsk Oblast     54°35′23″N   48°04′47″E
temp.,
°C
wind,
m/s
gust,
m/s
humid.,
%
clouds,
%
prec.,
mm/h
press.,
hPa
HPBL,
m
16 june, wed
wed1601:00+17ene4119461 0.0 1010200
04:00+16ene389514 0.0 1008140
07:00+18ese368460 0.0 1007164
10:00+23sse346154 0.1 1006462
13:00+26s33585 0.0 1006980
16:00+27wsw55597 0.0 10061343
19:00+24w47765 2.1 1006188
22:00+19nw7139346 3.1 1008384
17 june, thu
thu1701:00+16nnw6139513 0.1 1011480
04:00+15nnw613911 0.1 1013391
07:00+16nnw511840 0.0 1015449
10:00+20n6860100 0.0 1017997
13:00+21nnw6753100 0.0 10181639
16:00+21nnw67500 0.0 10191640
19:00+19n47640 0.0 1019485
22:00+14wnw37775 0.0 1021119
18 june, fri
fri1801:00+13nnw388144 0.0 1022129
04:00+12nnw37751 0.0 1023116
07:00+15nne37730 0.0 1025208
10:00+18nne45530 0.0 1026947
13:00+21n45500 0.0 10261666
16:00+21n46500 0.0 10261736
19:00+20nne35655 0.0 1026295
22:00+16wnw1174100 0.0 102711
19 june, sat
sat1901:00+14w2273100 0.0 102817
04:00+13w337494 0.0 102832
07:00+17w3576100 0.0 1028171
10:00+21w45645 0.0 1028561
13:00+24w675822 0.0 10261217
16:00+25w68588 0.0 10251617
19:00+24wnw59710 0.0 1024596
22:00+19w49910 0.0 1024170
20 june, sun
sun2001:00+18w513892 0.0 1024255
04:00+17w410920 0.0 1025169
07:00+20wnw48830 0.0 1025252
10:00+25nw56672 0.0 1025726
13:00+27nw45495 0.0 10242007
16:00+28n344516 0.0 10232115
19:00+25nw1166100 0.0 102218
22:00+23nw236798 0.0 102343